YRJTV LROP-LRCV

Flight info

Callsign YRJTV
Flight time 1h 5m
Altitude 3500
Route LROP LRCV
Aircraft P208/L-V/N

Departure

Time 2026-04-20 17:30
Airport Bucharest Henri Coandă International Airport (LROP)

Arrival

Time 2026-04-20 18:36
Airport Craiova International Airport (LRCV)
Time Latitude Longitude Altitude Speed Heading
2026-04-20 17:13 44.57116 26.08228 312 ft 0 kts 218°
2026-04-20 17:24 44.57107 26.08240 312 ft 6 kts 77°
2026-04-20 17:24 44.57149 26.08296 312 ft 11 kts 39°
2026-04-20 17:24 44.57214 26.08376 313 ft 14 kts 46°
2026-04-20 17:25 44.57289 26.08477 314 ft 16 kts
2026-04-20 17:25 44.57398 26.08465 315 ft 14 kts 354°
2026-04-20 17:25 44.57483 26.08460 315 ft 10 kts 356°
2026-04-20 17:25 44.57515 26.08453 316 ft 0 kts 348°
2026-04-20 17:26 44.57517 26.08453 316 ft 4 kts 348°
2026-04-20 17:26 44.57523 26.08526 315 ft 14 kts 117°
2026-04-20 17:27 44.57508 26.08670 315 ft 17 kts 82°
2026-04-20 17:27 44.57519 26.08850 314 ft 20 kts 86°
2026-04-20 17:27 44.57536 26.09047 314 ft 21 kts 85°
2026-04-20 17:27 44.57551 26.09254 313 ft 22 kts 84°
2026-04-20 17:28 44.57567 26.09470 313 ft 23 kts 83°
2026-04-20 17:28 44.57600 26.09725 312 ft 29 kts 65°
2026-04-20 17:28 44.57698 26.09927 313 ft 21 kts 54°
2026-04-20 17:28 44.57767 26.10077 313 ft 16 kts 56°
2026-04-20 17:29 44.57795 26.10198 314 ft 11 kts 85°
2026-04-20 17:29 44.57809 26.10256 314 ft 6 kts 268°
2026-04-20 17:29 44.57793 26.10193 314 ft 15 kts 261°
2026-04-20 17:29 44.57764 26.09791 313 ft 65 kts 263°
2026-04-20 17:30 44.57704 26.09075 487 ft 67 kts 260°
2026-04-20 17:30 44.57641 26.08426 616 ft 80 kts 264°
2026-04-20 17:30 44.57414 26.07789 862 ft 74 kts 232°
2026-04-20 17:30 44.57064 26.07136 1000 ft 85 kts 235°
2026-04-20 17:31 44.56733 26.06487 1279 ft 80 kts 236°
2026-04-20 17:31 44.56418 26.05865 1557 ft 77 kts 236°
2026-04-20 17:31 44.56112 26.05274 1768 ft 76 kts 235°
2026-04-20 17:31 44.55845 26.04660 2017 ft 75 kts 263°
2026-04-20 17:32 44.55832 26.03941 2264 ft 73 kts 261°
2026-04-20 17:32 44.55811 26.03231 2478 ft 73 kts 266°
2026-04-20 17:32 44.55787 26.02520 2693 ft 73 kts 265°
2026-04-20 17:32 44.55763 26.01814 2909 ft 73 kts 265°
2026-04-20 17:33 44.55742 26.01108 3149 ft 72 kts 265°
2026-04-20 17:33 44.55719 26.00405 3389 ft 72 kts 265°
2026-04-20 17:33 44.55693 25.99706 3542 ft 72 kts 265°
2026-04-20 17:33 44.55669 25.99014 3689 ft 72 kts 265°
2026-04-20 17:34 44.55646 25.98314 3866 ft 72 kts 265°
2026-04-20 17:34 44.55634 25.97644 3922 ft 70 kts 268°
2026-04-20 17:34 44.55631 25.97018 4002 ft 62 kts 266°
2026-04-20 17:34 44.55602 25.96392 4142 ft 66 kts 264°
2026-04-20 17:35 44.55580 25.95738 4302 ft 68 kts 264°
2026-04-20 17:35 44.55556 25.95069 4465 ft 69 kts 265°
2026-04-20 17:35 44.55527 25.94297 4495 ft 90 kts 266°
2026-04-20 17:35 44.55507 25.93344 4482 ft 104 kts 274°
2026-04-20 17:36 44.55959 25.92517 4484 ft 120 kts 329°
2026-04-20 17:36 44.56494 25.91684 4457 ft 117 kts 277°
2026-04-20 17:36 44.56388 25.90576 4465 ft 115 kts 259°
2026-04-20 17:36 44.56257 25.89476 4456 ft 112 kts 260°
2026-04-20 17:37 44.56153 25.88422 4459 ft 107 kts 261°
2026-04-20 17:37 44.56063 25.87386 4454 ft 107 kts 262°
2026-04-20 17:37 44.55979 25.86373 4458 ft 103 kts 262°
2026-04-20 17:37 44.55898 25.85370 4462 ft 104 kts 262°
2026-04-20 17:38 44.55817 25.84354 4463 ft 105 kts 262°
2026-04-20 17:38 44.55739 25.83345 4459 ft 105 kts 262°
2026-04-20 17:38 44.55660 25.82341 4458 ft 103 kts 263°
2026-04-20 17:38 44.55580 25.81328 4453 ft 105 kts 262°
2026-04-20 17:39 44.55334 25.80389 4456 ft 103 kts 232°
2026-04-20 17:39 44.54898 25.79598 4463 ft 103 kts 234°
2026-04-20 17:39 44.54464 25.78791 4462 ft 104 kts 233°
2026-04-20 17:39 44.54027 25.77980 4456 ft 104 kts 233°
2026-04-20 17:40 44.53596 25.77182 4457 ft 103 kts 233°
2026-04-20 17:40 44.53169 25.76389 4509 ft 98 kts 233°
2026-04-20 17:40 44.52793 25.75698 4684 ft 82 kts 234°
2026-04-20 17:40 44.52463 25.75092 4851 ft 72 kts 234°
2026-04-20 17:41 44.52165 25.74547 4996 ft 70 kts 234°
2026-04-20 17:41 44.51880 25.74021 5180 ft 65 kts 234°
2026-04-20 17:41 44.51621 25.73546 5342 ft 57 kts 233°
2026-04-20 17:41 44.51386 25.73130 5417 ft 56 kts 231°
2026-04-20 17:42 44.51133 25.72627 5467 ft 67 kts 230°
2026-04-20 17:42 44.50833 25.72058 5528 ft 80 kts 233°
2026-04-20 17:42 44.50459 25.71367 5530 ft 97 kts 234°
2026-04-20 17:42 44.50026 25.70566 5508 ft 108 kts 234°
2026-04-20 17:43 44.49563 25.69707 5452 ft 108 kts 234°
2026-04-20 17:43 44.49128 25.68903 5441 ft 98 kts 234°
2026-04-20 17:43 44.48738 25.68185 5480 ft 90 kts 234°
2026-04-20 17:43 44.48371 25.67508 5513 ft 84 kts 234°
2026-04-20 17:44 44.48023 25.66864 5550 ft 81 kts 234°
2026-04-20 17:44 44.47691 25.66252 5554 ft 77 kts 234°
2026-04-20 17:44 44.47369 25.65658 5550 ft 76 kts 234°
2026-04-20 17:44 44.47054 25.65078 5548 ft 74 kts 234°
2026-04-20 17:45 44.46751 25.64519 5548 ft 71 kts 234°
2026-04-20 17:45 44.46458 25.63979 5549 ft 68 kts 233°
2026-04-20 17:45 44.46175 25.63458 5559 ft 68 kts 232°
2026-04-20 17:45 44.45872 25.62897 5578 ft 78 kts 233°
2026-04-20 17:46 44.45528 25.62255 5573 ft 88 kts 233°
2026-04-20 17:46 44.45147 25.61553 5568 ft 93 kts 234°
2026-04-20 17:46 44.44751 25.60824 5566 ft 95 kts 234°
2026-04-20 17:46 44.44345 25.60073 5566 ft 98 kts 234°
2026-04-20 17:47 44.43930 25.59306 5567 ft 99 kts 234°
2026-04-20 17:47 44.43508 25.58529 5566 ft 101 kts 233°
2026-04-20 17:47 44.43083 25.57746 5551 ft 100 kts 234°
2026-04-20 17:47 44.42667 25.56981 5555 ft 99 kts 234°
2026-04-20 17:48 44.42249 25.56210 5554 ft 100 kts 233°
2026-04-20 17:48 44.41834 25.55447 5554 ft 100 kts 234°
2026-04-20 17:48 44.41413 25.54671 5555 ft 100 kts 233°
2026-04-20 17:48 44.40991 25.53897 5552 ft 100 kts 234°
2026-04-20 17:49 44.40572 25.53124 5556 ft 100 kts 233°
2026-04-20 17:49 44.40155 25.52358 5563 ft 97 kts 234°
2026-04-20 17:49 44.39745 25.51603 5559 ft 98 kts 234°
2026-04-20 17:49 44.39331 25.50843 5562 ft 99 kts 233°
2026-04-20 17:50 44.38913 25.50075 5566 ft 100 kts 234°
2026-04-20 17:50 44.38498 25.49309 5569 ft 101 kts 233°
2026-04-20 17:50 44.38072 25.48525 5561 ft 101 kts 233°
2026-04-20 17:50 44.37654 25.47761 5559 ft 98 kts 234°
2026-04-20 17:51 44.37245 25.47011 5557 ft 97 kts 234°
2026-04-20 17:51 44.36831 25.46249 5567 ft 100 kts 234°
2026-04-20 17:51 44.36406 25.45469 5560 ft 100 kts 234°
2026-04-20 17:51 44.35991 25.44709 5554 ft 97 kts 234°
2026-04-20 17:52 44.35721 25.44216 5550 ft 96 kts 234°
2026-04-20 17:52 44.35317 25.43475 5554 ft 97 kts 234°
2026-04-20 17:52 44.34769 25.42470 5552 ft 99 kts 233°
2026-04-20 17:52 44.34357 25.41712 5553 ft 98 kts 234°
2026-04-20 17:53 44.33951 25.40972 5556 ft 95 kts 234°
2026-04-20 17:53 44.33548 25.40233 5555 ft 95 kts 234°
2026-04-20 17:53 44.33283 25.39751 5558 ft 95 kts 234°
2026-04-20 17:53 44.32740 25.38754 5559 ft 97 kts 234°
2026-04-20 17:54 44.32470 25.38257 5560 ft 97 kts 234°
2026-04-20 17:54 44.32059 25.37506 5555 ft 97 kts 234°
2026-04-20 17:54 44.31650 25.36757 5563 ft 97 kts 234°
2026-04-20 17:54 44.31105 25.35761 5557 ft 98 kts 233°
2026-04-20 17:55 44.30700 25.35019 5556 ft 95 kts 233°
2026-04-20 17:55 44.30427 25.34521 5560 ft 96 kts 234°
2026-04-20 17:55 44.30022 25.33783 5560 ft 97 kts 233°
2026-04-20 17:55 44.29611 25.33029 5564 ft 98 kts 234°
2026-04-20 17:56 44.29195 25.32272 5565 ft 98 kts 234°
2026-04-20 17:56 44.28781 25.31514 5556 ft 98 kts 235°
2026-04-20 17:56 44.28368 25.30760 5559 ft 97 kts 235°
2026-04-20 17:56 44.27956 25.30009 5556 ft 97 kts 235°
2026-04-20 17:57 44.27548 25.29264 5557 ft 96 kts 235°
2026-04-20 17:57 44.27141 25.28519 5561 ft 96 kts 235°
2026-04-20 17:57 44.26740 25.27789 5556 ft 95 kts 235°
2026-04-20 17:57 44.26335 25.27052 5553 ft 96 kts 235°
2026-04-20 17:58 44.25930 25.26312 5560 ft 97 kts 235°
2026-04-20 17:58 44.25518 25.25564 5564 ft 98 kts 235°
2026-04-20 17:58 44.25101 25.24803 5569 ft 99 kts 235°
2026-04-20 17:58 44.24686 25.24046 5561 ft 97 kts 234°
2026-04-20 17:59 44.24280 25.23308 5557 ft 95 kts 235°
2026-04-20 17:59 44.23897 25.22564 5559 ft 93 kts 245°
2026-04-20 17:59 44.23788 25.21688 5561 ft 94 kts 272°
2026-04-20 17:59 44.23852 25.20781 5565 ft 94 kts 273°
2026-04-20 18:00 44.23912 25.19880 5571 ft 95 kts 273°
2026-04-20 18:00 44.23974 25.18954 5574 ft 97 kts 273°
2026-04-20 18:00 44.24036 25.18018 5579 ft 97 kts 273°
2026-04-20 18:00 44.24098 25.17080 5578 ft 97 kts 273°
2026-04-20 18:01 44.24161 25.16150 5570 ft 95 kts 273°
2026-04-20 18:01 44.24222 25.15233 5572 ft 95 kts 273°
2026-04-20 18:01 44.24284 25.14310 5572 ft 96 kts 273°
2026-04-20 18:01 44.24345 25.13386 5572 ft 96 kts 274°
2026-04-20 18:02 44.24407 25.12460 5573 ft 96 kts 273°
2026-04-20 18:02 44.24467 25.11548 5572 ft 96 kts 273°
2026-04-20 18:02 44.24529 25.10624 5572 ft 96 kts 273°
2026-04-20 18:02 44.24590 25.09701 5570 ft 96 kts 273°
2026-04-20 18:03 44.24650 25.08780 5571 ft 95 kts 273°
2026-04-20 18:03 44.24711 25.07859 5569 ft 96 kts 273°
2026-04-20 18:03 44.24772 25.06937 5572 ft 95 kts 274°
2026-04-20 18:03 44.24832 25.06014 5571 ft 96 kts 274°
2026-04-20 18:04 44.24893 25.05085 5573 ft 96 kts 274°
2026-04-20 18:04 44.24953 25.04168 5573 ft 96 kts 273°
2026-04-20 18:04 44.25015 25.03240 5572 ft 96 kts 273°
2026-04-20 18:04 44.25075 25.02316 5569 ft 95 kts 273°
2026-04-20 18:05 44.25194 25.00479 5569 ft 95 kts 274°
2026-04-20 18:05 44.25255 24.99557 5568 ft 96 kts 273°
2026-04-20 18:05 44.25315 24.98633 5569 ft 96 kts 274°
2026-04-20 18:06 44.25376 24.97708 5571 ft 96 kts 273°
2026-04-20 18:06 44.25435 24.96793 5573 ft 96 kts 275°
2026-04-20 18:06 44.25495 24.95875 5574 ft 94 kts 274°
2026-04-20 18:06 44.25553 24.94979 5571 ft 93 kts 274°
2026-04-20 18:07 44.25611 24.94083 5571 ft 93 kts 274°
2026-04-20 18:07 44.25668 24.93189 5570 ft 93 kts 274°
2026-04-20 18:07 44.25726 24.92289 5571 ft 93 kts 274°
2026-04-20 18:07 44.25783 24.91395 5572 ft 93 kts 274°
2026-04-20 18:08 44.25841 24.90500 5569 ft 93 kts 274°
2026-04-20 18:08 44.25899 24.89611 5569 ft 92 kts 274°
2026-04-20 18:08 44.25955 24.88741 5572 ft 91 kts 274°
2026-04-20 18:08 44.26013 24.87855 5566 ft 92 kts 274°
2026-04-20 18:09 44.26068 24.86964 5568 ft 92 kts 274°
2026-04-20 18:09 44.26126 24.86078 5568 ft 92 kts 274°
2026-04-20 18:09 44.26183 24.85193 5567 ft 92 kts 274°
2026-04-20 18:09 44.26239 24.84307 5566 ft 91 kts 274°
2026-04-20 18:10 44.26295 24.83426 5564 ft 91 kts 274°
2026-04-20 18:10 44.26351 24.82543 5565 ft 92 kts 274°
2026-04-20 18:10 44.26407 24.81674 5562 ft 90 kts 274°
2026-04-20 18:10 44.26461 24.80805 5567 ft 90 kts 274°
2026-04-20 18:11 44.26518 24.79922 5567 ft 92 kts 274°
2026-04-20 18:11 44.26574 24.79035 5568 ft 92 kts 274°
2026-04-20 18:11 44.26630 24.78149 5576 ft 92 kts 274°
2026-04-20 18:11 44.26686 24.77262 5574 ft 92 kts 274°
2026-04-20 18:12 44.26742 24.76378 5571 ft 91 kts 275°
2026-04-20 18:12 44.26798 24.75497 5573 ft 91 kts 274°
2026-04-20 18:12 44.26853 24.74618 5569 ft 91 kts 274°
2026-04-20 18:12 44.26908 24.73750 5575 ft 91 kts 275°
2026-04-20 18:13 44.26963 24.72870 5574 ft 91 kts 275°
2026-04-20 18:13 44.27017 24.71991 5572 ft 91 kts 274°
2026-04-20 18:13 44.27073 24.71119 5569 ft 89 kts 274°
2026-04-20 18:13 44.27127 24.70260 5569 ft 89 kts 274°
2026-04-20 18:14 44.27180 24.69398 5569 ft 90 kts 274°
2026-04-20 18:14 44.27235 24.68532 5569 ft 90 kts 274°
2026-04-20 18:14 44.27288 24.67671 5570 ft 89 kts 274°
2026-04-20 18:14 44.27342 24.66805 5572 ft 90 kts 274°
2026-04-20 18:15 44.27396 24.65939 5574 ft 91 kts 274°
2026-04-20 18:15 44.27451 24.65055 5575 ft 92 kts 275°
2026-04-20 18:15 44.27506 24.64166 5576 ft 92 kts 274°
2026-04-20 18:15 44.27561 24.63272 5578 ft 93 kts 274°
2026-04-20 18:16 44.27618 24.62375 5575 ft 92 kts 274°
2026-04-20 18:16 44.27672 24.61496 5572 ft 90 kts 274°
2026-04-20 18:16 44.27726 24.60619 5575 ft 91 kts 274°
2026-04-20 18:16 44.27780 24.59738 5572 ft 90 kts 274°
2026-04-20 18:17 44.27833 24.58860 5574 ft 91 kts 275°
2026-04-20 18:17 44.27889 24.57994 5582 ft 90 kts 275°
2026-04-20 18:17 44.27941 24.57131 5579 ft 89 kts 275°
2026-04-20 18:17 44.27993 24.56277 5578 ft 88 kts 275°
2026-04-20 18:18 44.28046 24.55424 5577 ft 88 kts 275°
2026-04-20 18:18 44.28099 24.54572 5578 ft 88 kts 276°
2026-04-20 18:18 44.28148 24.53722 5579 ft 88 kts 275°
2026-04-20 18:18 44.28202 24.52873 5578 ft 87 kts 276°
2026-04-20 18:19 44.28253 24.52027 5574 ft 87 kts 276°
2026-04-20 18:19 44.28302 24.51209 5570 ft 85 kts 275°
2026-04-20 18:19 44.28353 24.50379 5573 ft 87 kts 276°
2026-04-20 18:19 44.28404 24.49537 5574 ft 87 kts 276°
2026-04-20 18:20 44.28456 24.48692 5575 ft 88 kts 275°
2026-04-20 18:20 44.28507 24.47841 5573 ft 88 kts 275°
2026-04-20 18:20 44.28558 24.46994 5572 ft 87 kts 275°
2026-04-20 18:20 44.28610 24.46151 5571 ft 87 kts 275°
2026-04-20 18:21 44.28660 24.45319 5567 ft 86 kts 275°
2026-04-20 18:21 44.28710 24.44489 5567 ft 86 kts 275°
2026-04-20 18:21 44.28760 24.43657 5579 ft 87 kts 275°
2026-04-20 18:21 44.28809 24.42826 5579 ft 87 kts 276°
2026-04-20 18:22 44.28861 24.41973 5583 ft 89 kts 276°
2026-04-20 18:22 44.28913 24.41116 5578 ft 88 kts 276°
2026-04-20 18:22 44.28964 24.40261 5579 ft 89 kts 276°
2026-04-20 18:22 44.29016 24.39401 5580 ft 90 kts 276°
2026-04-20 18:23 44.29068 24.38532 5575 ft 89 kts 276°
2026-04-20 18:23 44.29119 24.37677 5572 ft 88 kts 276°
2026-04-20 18:23 44.29169 24.36830 5577 ft 88 kts 276°
2026-04-20 18:23 44.29222 24.35964 5578 ft 90 kts 276°
2026-04-20 18:24 44.29270 24.35106 5572 ft 89 kts 275°
2026-04-20 18:24 44.29325 24.34258 5574 ft 87 kts 276°
2026-04-20 18:24 44.29373 24.33414 5571 ft 88 kts 276°
2026-04-20 18:24 44.29424 24.32562 5574 ft 89 kts 276°
2026-04-20 18:25 44.29475 24.31702 5574 ft 89 kts 276°
2026-04-20 18:25 44.29523 24.30857 5575 ft 86 kts 275°
2026-04-20 18:25 44.29574 24.30017 5577 ft 88 kts 276°
2026-04-20 18:25 44.29626 24.29136 5466 ft 96 kts 276°
2026-04-20 18:26 44.29686 24.28165 5297 ft 103 kts 277°
2026-04-20 18:26 44.29742 24.27165 5131 ft 107 kts 276°
2026-04-20 18:26 44.29805 24.26122 4962 ft 108 kts 276°
2026-04-20 18:26 44.29870 24.25070 4787 ft 109 kts 276°
2026-04-20 18:27 44.29930 24.24004 4413 ft 109 kts 277°
2026-04-20 18:27 44.29995 24.22954 4030 ft 108 kts 276°
2026-04-20 18:27 44.30055 24.21921 3651 ft 107 kts 276°
2026-04-20 18:27 44.30112 24.20921 3479 ft 97 kts 275°
2026-04-20 18:28 44.30161 24.20028 3457 ft 89 kts 276°
2026-04-20 18:28 44.30207 24.19197 3466 ft 86 kts 276°
2026-04-20 18:28 44.30254 24.18376 3471 ft 86 kts 277°
2026-04-20 18:28 44.30305 24.17539 3472 ft 87 kts 277°
2026-04-20 18:29 44.30354 24.16692 3471 ft 88 kts 277°
2026-04-20 18:29 44.30402 24.15843 3474 ft 88 kts 277°
2026-04-20 18:29 44.30448 24.14998 3472 ft 86 kts 277°
2026-04-20 18:29 44.30499 24.14160 3472 ft 88 kts 276°
2026-04-20 18:30 44.30549 24.13296 3471 ft 91 kts 277°
2026-04-20 18:30 44.30598 24.12425 3475 ft 87 kts 277°
2026-04-20 18:30 44.30650 24.11568 3451 ft 92 kts 278°
2026-04-20 18:30 44.30700 24.10640 3385 ft 99 kts 278°
2026-04-20 18:31 44.30757 24.09679 3317 ft 102 kts 277°
2026-04-20 18:31 44.30814 24.08683 3243 ft 103 kts 277°
2026-04-20 18:31 44.30871 24.07688 3162 ft 103 kts 276°
2026-04-20 18:31 44.30926 24.06699 3084 ft 102 kts 277°
2026-04-20 18:32 44.30986 24.05714 3006 ft 101 kts 277°
2026-04-20 18:32 44.31039 24.04731 2946 ft 101 kts 277°
2026-04-20 18:32 44.31092 24.03772 2928 ft 95 kts 277°
2026-04-20 18:32 44.31141 24.02900 2929 ft 87 kts 277°
2026-04-20 18:33 44.31187 24.02056 2935 ft 89 kts 276°
2026-04-20 18:33 44.31236 24.01205 2930 ft 89 kts 277°
2026-04-20 18:33 44.31285 24.00360 2927 ft 87 kts 277°
2026-04-20 18:33 44.31334 23.99512 2948 ft 88 kts 276°
2026-04-20 18:34 44.31382 23.98633 2947 ft 92 kts 277°
2026-04-20 18:34 44.31432 23.97742 2929 ft 89 kts 277°
2026-04-20 18:34 44.31479 23.96903 2938 ft 87 kts 277°
2026-04-20 18:34 44.31527 23.96045 2939 ft 89 kts 277°
2026-04-20 18:35 44.31578 23.95178 2944 ft 90 kts 277°
2026-04-20 18:35 44.31626 23.94293 2806 ft 102 kts 277°
2026-04-20 18:35 44.31692 23.93235 2311 ft 112 kts 276°
2026-04-20 18:35 44.31801 23.92115 1413 ft 125 kts 271°
2026-04-20 18:36 44.31828 23.90884 748 ft 123 kts 273°
2026-04-20 18:36 44.31821 23.89990 628 ft 69 kts 272°
2026-04-20 18:36 44.31825 23.89496 621 ft 37 kts 269°
2026-04-20 18:36 44.31823 23.89222 623 ft 22 kts 268°
2026-04-20 18:37 44.31810 23.89049 625 ft 15 kts 265°
2026-04-20 18:37 44.31809 23.88935 621 ft 9 kts 275°
2026-04-20 18:37 44.31816 23.88871 621 ft 5 kts 280°
2026-04-20 18:39 44.31817 23.88840 622 ft 2 kts 263°
2026-04-20 18:39 44.31816 23.88835 622 ft 0 kts 255°